Wind_Speed
2 4 6 10 8 5 4 4 3 2 7 5 7 4 7 9 7 12 12 29 33 32 30 26 27 24 27 24 20 18 20 16 17 16 11 8 10 6 5 4 3 1 4 2
5 3 9 7 5 6 5 3 2 1 9 5 6 9 8 9 8 15 14 19 29 32 30 32 28 28 30 26 23 21 17 16 15 13 10 13 9 8 8 6 5 3 4 2
5 7 3 7 6 4 4 6 4 4 5 3 3 4 4 5 9 15 16 17 20 25 32 35 32 32 30 29 27 24 20 17 14 12 15 15 14 9 9 7 8 6 3 2
5 5 6 5 5 9 5 12 7 6 5 3 5 3 4 4 7 8 20 20 19 20 25 32 37 35 34 31 27 25 23 20 16 15 16 15 14 11 9 8 6 5 5 3
7 3 4 4 7 9 11 9 13 5 4 2 1 2 5 2 7 8 14 27 24 19 25 30 34 36 35 32 30 25 20 24 21 17 16 15 13 13 10 9 8 6 7 6
7 5 4 7 3 6 5 8 8 6 3 2 6 5 4 3 5 4 14 28 34 28 20 23 32 32 36 35 31 28 22 24 25 19 17 19 16 15 13 12 12 10 6 7
5 4 4 4 1 3 6 6 3 3 1 6 1 5 7 5 6 5 7 21 32 37 27 23 27 37 39 37 34 29 24 21 25 22 20 22 17 19 15 13 15 14 10 7
2 7 2 2 9 7 5 8 6 6 4 5 1 4 4 4 8 6 10 14 26 34 33 32 32 33 40 39 37 31 28 20 25 24 23 23 20 17 18 13 15 15 12 10
3 5 4 3 3 8 3 4 4 6 3 3 2 4 6 4 3 0 5 3 24 33 39 34 34 30 30 32 36 32 30 26 23 25 24 25 24 22 21 17 16 16 15 13
4 3 3 6 3 6 4 4 3 4 3 2 3 4 4 1 2 6 8 10 8 24 29 36 35 37 31 32 31 29 32 28 24 25 23 26 27 23 21 20 19 19 15 13
4 3 6 4 6 3 5 4 6 5 3 4 1 5 5 5 4 5 8 12 17 16 26 29 34 36 32 33 30 26 28 30 25 26 23 22 24 26 24 23 21 18 17 18
2 5 4 1 3 5 5 3 4 4 3 1 2 5 2 5 6 7 12 14 17 15 20 23 29 34 33 32 22 27 29 30 29 27 25 23 23 24 25 27 23 22 17 15
5 3 4 6 7 4 5 1 3 4 3 5 5 5 2 4 5 4 5 7 4 7 17 22 26 31 32 28 33 29 28 29 29 27 26 25 22 23 25 25 24 24 21 18
8 3 5 6 5 3 2 3 0 4 3 4 6 4 3 3 2 4 3 4 7 7 14 16 24 28 26 26 27 27 28 29 26 27 25 26 23 22 24 23 24 25 26 23
5 4 3 4 3 4 4 4 6 5 4 6 3 6 5 1 3 6 3 2 5 10 8 11 15 23 23 25 21 18 18 26 29 26 28 25 26 24 24 25 24 23 22 22
3 3 2 2 3 2 3 5 6 5 3 5 5 6 2 3 4 8 2 3 6 7 10 8 7 14 18 16 19 25 26 23 18 17 21 26 24 26 27 28 26 25 24 23
4 7 4 4 3 5 5 5 4 3 4 5 5 7 2 3 5 3 1 5 8 7 5 7 8 5 12 16 21 20 21 24 22 17 16 22 26 19 10 15 18 24 24 24
6 5 3 2 3 2 5 4 5 6 5 5 1 3 4 5 8 5 4 4 7 6 10 14 13 10 2 6 18 17 16 14 15 21 17 12 14 23 15 16 12 12 16 20
2 6 3 5 4 4 2 4 4 4 7 8 6 2 5 12 13 6 7 9 12 13 12 14 13 10 5 6 8 10 11 12 13 14 14 12 13 15 16 20 19 17 12 11
6 7 4 3 3 6 6 4 8 6 6 7 11 7 8 12 6 3 10 10 12 10 9 10 14 3 3 8 13 16 20 17 14 10 6 4 8 14 12 11 18 18 15 11
4 4 4 2 2 5 6 5 8 4 6 14 17 19 17 6 7 17 13 16 13 10 6 10 9 13 13 14 15 15 16 14 14 12 7 3 3 7 12 11 11 12 10 8
6 6 3 3 1 6 7 3 6 5 2 17 16 16 13 6 15 19 15 18 13 9 6 9 11 13 13 10 12 14 15 11 8 5 6 9 10 7 6 9 10 8 9 9
2 6 5 7 6 6 6 3 4 10 2 11 15 13 12 15 17 17 15 12 12 10 8 9 12 14 16 13 15 18 15 12 13 14 12 11 12 11 11 9 8 9 8 8
1 4 4 2 4 8 10 9 7 3 1 2 9 10 17 20 19 16 14 14 14 13 12 9 9 13 15 13 14 15 14 12 11 13 13 11 9 10 11 10 10 10 10 8
4 8 6 2 4 3 9 10 8 5 4 8 15 9 20 17 15 13 13 12 14 13 11 11 11 14 15 14 13 12 11 9 9 10 11 12 11 11 11 11 11 9 9 8
6 7 5 5 16 15 13 17 14 13 10 9 16 17 15 13 11 11 12 12 12 13 11 12 11 11 13 11 11 11 9 8 9 12 13 12 11 10 10 9 11 10 7 5
Wind_Direction
38 91 193 193 211 234 165 193 194 139 171 166 197 228 223 197 199 159 162 190 194 207 204 194 190 188 191 185 171 167 187 197 198 202 207 213 195 190 188 224 260 268 222 232
22 232 223 190 203 245 224 234 248 182 170 168 174 222 230 181 213 199 178 176 184 206 202 203 197 193 191 187 186 178 179 186 187 198 236 204 208 217 221 240 201 232 184 111
162 235 127 176 179 181 218 215 176 183 163 215 128 295 187 234 212 219 202 193 187 193 207 204 199 202 195 194 193 193 193 189 187 198 199 211 213 215 205 204 223 250 200 141
221 254 216 223 204 193 206 211 206 159 131 229 150 276 267 216 226 200 222 207 189 192 197 201 202 201 204 202 198 199 201 203 192 193 212 215 219 217 216 217 241 225 222 206
257 276 179 189 223 157 227 171 200 119 93 331 276 85 268 109 239 218 208 224 214 200 193 190 206 207 207 207 204 204 213 208 204 209 214 215 221 214 229 231 227 214 206 214
240 251 210 208 157 175 85 80 47 53 69 346 235 156 276 215 231 248 210 217 218 209 204 204 204 208 210 210 209 208 212 216 212 215 216 218 225 218 225 215 224 227 224 215
322 272 290 203 17 67 74 70 27 13 28 227 110 120 244 246 244 236 279 231 217 213 203 211 210 208 206 208 209 211 213 220 217 221 229 220 215 225 216 227 226 224 231 216
76 331 284 273 187 166 171 152 154 184 189 235 114 224 251 223 296 254 265 274 214 207 209 202 200 207 207 205 208 212 215 221 227 231 233 221 220 215 216 232 221 218 226 229
146 277 305 225 165 125 198 186 180 105 5 75 248 295 296 248 169 212 4 350 205 206 212 207 205 198 197 214 215 212 217 220 225 226 230 224 224 226 226 236 226 224 231 230
191 310 342 297 24 30 112 150 49 9 144 251 308 289 244 276 346 328 340 345 233 216 215 215 213 206 204 216 215 216 222 222 228 227 234 229 230 229 234 234 234 231 227 231
132 115 309 36 2 284 18 23 56 110 106 159 212 263 222 223 224 256 302 307 304 250 213 210 217 209 204 211 216 215 214 219 225 231 233 233 227 232 233 229 229 225 234 246
334 123 78 105 322 18 87 100 108 117 226 58 142 269 273 246 249 254 284 300 300 269 229 211 213 209 195 201 200 214 221 214 224 235 232 237 233 234 231 227 230 231 231 242
188 34 88 352 333 353 60 58 116 104 72 197 147 258 158 352 276 255 271 317 332 250 203 205 205 199 198 214 220 216 212 220 221 223 228 237 235 234 236 234 235 237 239 241
98 101 150 184 204 162 194 237 134 127 129 183 227 267 264 26 14 288 335 2 179 149 191 194 188 187 190 194 197 207 217 216 219 221 231 228 232 237 235 238 235 239 238 239
99 142 171 204 191 185 225 196 197 189 201 175 285 218 267 297 326 312 314 78 167 190 189 185 192 190 210 199 207 213 220 223 215 216 227 229 228 225 231 236 232 228 229 234
23 166 103 164 294 54 274 259 204 222 208 256 255 284 81 27 5 4 156 117 139 167 160 155 187 180 186 209 232 234 236 233 230 231 224 221 239 228 226 230 231 231 230 231
122 135 118 247 16 337 324 264 204 221 205 185 211 217 176 94 65 6 243 182 157 138 122 189 182 198 241 235 222 213 206 210 213 198 214 217 218 226 221 239 246 237 231 235
131 101 90 181 30 241 238 263 237 217 234 211 288 215 187 170 134 120 115 199 177 174 136 126 131 142 147 233 210 205 202 201 207 214 211 193 208 220 251 226 242 242 230 226
96 126 102 144 187 274 279 211 165 179 277 188 203 175 151 139 124 106 113 95 108 138 133 124 120 125 130 133 173 181 177 179 186 180 185 212 219 223 237 237 240 238 229 233
74 77 106 132 166 204 233 303 202 133 284 171 166 164 167 162 170 170 142 130 131 129 133 110 105 210 206 151 143 127 132 93 97 142 137 165 221 228 229 234 224 229 227 227
34 18 115 142 196 285 240 282 156 109 248 176 191 182 175 178 192 170 152 123 114 138 132 130 158 190 193 206 181 158 138 159 137 135 156 143 181 214 209 214 217 213 206 210
156 126 177 90 88 275 162 141 164 207 279 189 186 181 173 166 151 136 133 128 131 124 111 101 130 127 129 166 186 182 174 177 174 174 144 155 168 182 178 173 177 217 198 171
94 173 178 165 216 256 169 267 257 311 274 183 186 197 184 162 129 138 129 138 136 131 126 119 121 115 119 126 149 147 142 139 137 142 143 135 141 143 141 153 163 161 154 158
115 160 107 119 258 242 249 249 287 283 45 126 181 204 166 147 148 147 137 129 122 124 126 124 129 130 125 125 131 135 136 140 138 136 135 133 140 140 138 143 142 140 140 137
183 144 147 261 312 291 247 245 237 201 155 130 155 164 158 167 163 156 142 131 131 129 136 138 141 139 135 136 137 132 132 137 146 137 128 126 123 120 123 131 129 123 120 115
181 165 147 213 194 186 217 203 203 193 185 161 174 184 183 190 176 164 152 143 144 144 142 145 142 141 140 147 144 142 145 148 149 136 127 124 123 120 123 124 121 119 115 113
Height
1501 1510 1517 1512 1508 1503 1509 1517 1517 1515 1513 1518 1521 1523 1521 1522 1523 1525 1527 1528 1531 1533 1535 1539 1543 1546 1549 1550 1552 1554 1557 1559 1560 1562 1564 1566 1568 1569 1570 1570 1571 1572 1573 1574
1508 1514 1502 1503 1506 1507 1509 1513 1516 1513 1511 1515 1520 1520 1517 1519 1520 1520 1524 1525 1526 1531 1534 1538 1541 1545 1547 1550 1551 1553 1556 1559 1560 1562 1564 1566 1567 1569 1569 1570 1571 1572 1573 1573
1511 1500 1494 1500 1504 1509 1511 1514 1516 1511 1513 1512 1516 1522 1518 1514 1517 1518 1521 1523 1524 1527 1529 1532 1538 1542 1545 1548 1549 1551 1553 1557 1560 1562 1564 1566 1567 1568 1569 1570 1570 1571 1572 1573
1503 1494 1494 1497 1503 1502 1519 1497 1500 1507 1519 1531 1514 1539 1518 1515 1515 1516 1517 1521 1522 1524 1526 1529 1534 1538 1541 1543 1547 1550 1552 1555 1559 1561 1563 1564 1566 1567 1569 1571 1570 1570 1571 1573
1501 1492 1492 1497 1494 1490 1499 1489 1497 1505 1522 1522 1524 1535 1517 1515 1515 1509 1510 1512 1516 1521 1523 1525 1530 1534 1537 1541 1544 1547 1550 1553 1555 1559 1562 1563 1564 1566 1568 1570 1570 1570 1572 1572
1491 1484 1484 1484 1483 1485 1485 1499 1509 1522 1529 1543 1520 1527 1524 1519 1510 1503 1504 1505 1508 1514 1518 1521 1526 1532 1535 1539 1543 1546 1548 1551 1554 1556 1559 1562 1564 1565 1566 1568 1569 1569 1570 1571
1493 1485 1479 1477 1484 1488 1493 1511 1547 1547 1548 1545 1522 1527 1518 1506 1501 1501 1501 1502 1502 1508 1512 1517 1521 1525 1530 1535 1540 1543 1546 1548 1551 1553 1556 1560 1562 1564 1565 1566 1567 1569 1569 1570
1510 1513 1483 1476 1480 1491 1497 1507 1536 1544 1556 1537 1522 1529 1512 1502 1500 1500 1500 1496 1498 1501 1508 1512 1515 1522 1526 1532 1536 1540 1543 1545 1548 1550 1553 1556 1559 1561 1564 1565 1566 1567 1568 1569
1512 1506 1479 1477 1476 1480 1495 1506 1498 1527 1531 1536 1531 1515 1503 1498 1499 1499 1497 1493 1492 1496 1500 1506 1512 1519 1523 1531 1532 1535 1539 1542 1545 1548 1550 1552 1556 1558 1561 1564 1565 1566 1567 1568
1491 1507 1486 1481 1477 1482 1485 1493 1512 1524 1529 1533 1532 1525 1521 1500 1500 1497 1495 1493 1494 1497 1499 1501 1505 1513 1519 1525 1528 1531 1534 1538 1542 1545 1547 1549 1552 1555 1558 1560 1562 1564 1565 1567
1489 1498 1498 1489 1499 1500 1498 1504 1513 1521 1531 1539 1543 1532 1501 1498 1497 1496 1494 1492 1490 1493 1492 1495 1501 1506 1513 1520 1524 1527 1530 1534 1538 1541 1544 1546 1549 1552 1554 1556 1559 1562 1563 1564
1486 1504 1518 1510 1500 1495 1496 1505 1513 1527 1527 1537 1537 1527 1494 1495 1494 1495 1493 1490 1486 1487 1490 1492 1496 1502 1508 1515 1520 1522 1527 1530 1534 1538 1541 1543 1546 1549 1551 1552 1555 1558 1560 1562
1484 1509 1529 1524 1512 1500 1504 1504 1510 1518 1524 1532 1537 1525 1493 1493 1493 1491 1490 1488 1486 1486 1490 1491 1495 1500 1504 1509 1516 1520 1522 1526 1529 1534 1539 1540 1542 1545 1547 1549 1552 1555 1557 1558
1479 1508 1513 1529 1515 1508 1509 1504 1504 1512 1528 1527 1524 1506 1493 1494 1494 1493 1490 1488 1486 1487 1489 1491 1493 1497 1501 1507 1512 1516 1518 1521 1525 1528 1536 1537 1538 1541 1544 1547 1548 1550 1553 1555
1484 1505 1504 1504 1502 1503 1503 1503 1507 1510 1508 1515 1507 1507 1495 1495 1496 1494 1492 1489 1488 1487 1488 1488 1493 1496 1500 1506 1511 1514 1517 1520 1521 1526 1530 1533 1534 1536 1539 1543 1545 1547 1549 1551
1486 1505 1502 1508 1502 1504 1505 1501 1503 1503 1502 1507 1504 1504 1495 1495 1496 1496 1494 1492 1489 1489 1489 1492 1493 1495 1500 1504 1505 1510 1513 1519 1519 1519 1523 1527 1531 1533 1535 1539 1542 1544 1546 1547
1489 1501 1511 1515 1509 1509 1513 1500 1498 1496 1495 1497 1503 1495 1493 1495 1497 1497 1494 1492 1490 1491 1491 1491 1494 1496 1499 1501 1503 1507 1512 1514 1515 1517 1522 1525 1526 1528 1531 1535 1538 1540 1542 1542
1493 1502 1510 1520 1514 1523 1500 1492 1490 1493 1489 1490 1491 1491 1491 1493 1496 1496 1493 1492 1491 1493 1494 1494 1495 1497 1499 1499 1502 1505 1508 1510 1512 1516 1520 1522 1523 1525 1529 1533 1535 1538 1537 1539
1480 1496 1516 1520 1526 1509 1493 1491 1491 1494 1490 1484 1486 1489 1491 1493 1494 1496 1493 1493 1491 1494 1495 1497 1498 1498 1499 1500 1502 1504 1504 1508 1510 1512 1516 1518 1521 1522 1526 1530 1533 1535 1536 1537
1484 1486 1499 1520 1513 1517 1496 1484 1484 1486 1500 1478 1482 1488 1491 1492 1495 1493 1494 1492 1492 1496 1498 1499 1498 1499 1501 1503 1505 1506 1506 1507 1506 1509 1511 1515 1517 1521 1524 1527 1529 1533 1534 1537
1498 1503 1509 1514 1512 1504 1484 1482 1482 1500 1498 1479 1480 1483 1486 1489 1489 1490 1491 1492 1493 1495 1496 1499 1499 1500 1502 1504 1505 1508 1510 1510 1508 1509 1512 1514 1515 1518 1522 1526 1528 1530 1532 1534
1492 1504 1511 1517 1513 1510 1479 1483 1487 1482 1478 1479 1480 1483 1485 1486 1488 1490 1492 1495 1495 1496 1497 1498 1500 1501 1502 1503 1504 1507 1510 1511 1512 1513 1514 1516 1517 1520 1523 1524 1527 1529 1531 1531
1489 1487 1496 1499 1499 1479 1478 1480 1477 1476 1478 1479 1482 1482 1484 1488 1491 1494 1493 1499 1500 1499 1501 1503 1502 1502 1504 1506 1508 1510 1514 1514 1515 1516 1518 1518 1519 1522 1524 1527 1529 1531 1533 1534
1476 1477 1485 1488 1478 1476 1477 1479 1478 1478 1478 1478 1480 1483 1485 1490 1494 1496 1498 1501 1501 1503 1504 1505 1506 1506 1508 1510 1513 1515 1516 1516 1517 1519 1519 1522 1524 1525 1526 1528 1530 1533 1534 1536
1471 1474 1482 1483 1478 1475 1475 1477 1478 1480 1481 1482 1484 1486 1488 1492 1495 1497 1500 1500 1503 1505 1507 1509 1511 1511 1511 1514 1516 1516 1517 1517 1518 1520 1521 1523 1526 1528 1529 1532 1534 1535 1536 1538
1464 1470 1479 1482 1468 1470 1471 1475 1477 1480 1482 1483 1486 1489 1492 1494 1497 1498 1500 1502 1505 1508 1510 1511 1513 1514 1514 1516 1516 1517 1518 1519 1520 1521 1523 1525 1529 1530 1532 1534 1534 1535 1538 1540